EHI
4 2 1 0 0 0 0 0 0 0 0 0 0 0 0 0 0 0 0 0 0 0 0 0 1 0 0 0 0 0 1 2 3 2 1 0 0 0 1 2 3 2 1 0 1 0 0 0 1
2 1 0 0 0 0 0 0 0 0 0 0 0 0 0 0 0 0 0 0 0 0 0 1 1 1 0 0 0 0 0 1 1 1 0 0 0 0 0 1 2 1 0 1 2 1 0 1 2
1 0 0 0 0 0 0 0 0 0 0 0 0 0 0 0 0 0 0 0 0 0 0 1 2 1 0 0 0 0 0 0 0 0 0 0 0 0 0 0 0 0 0 2 3 2 1 2 3
0 0 0 0 0 0 0 0 0 0 0 0 0 0 0 0 0 0 0 0 0 0 0 1 2 1 0 0 0 0 0 0 0 0 0 0 0 0 0 0 0 0 0 1 2 2 2 3 4
0 0 0 0 0 0 0 0 0 0 0 0 0 0 0 0 0 0 0 0 0 0 0 1 1 1 0 0 0 0 0 0 0 0 0 0 0 0 0 0 0 1 0 0 0 1 1 3 3
0 0 0 0 0 0 0 0 0 0 0 0 0 0 0 0 0 0 0 0 0 0 0 0 0 0 0 0 0 0 0 0 0 0 0 0 0 0 0 0 0 0 0 0 1 1 1 2 2
0 0 0 0 0 0 0 0 0 0 0 0 0 0 0 0 0 0 0 0 0 0 0 0 0 0 0 0 0 0 0 0 0 0 0 0 0 0 0 0 0 0 1 1 2 2 1 1 2
0 0 0 0 0 0 0 0 0 0 0 0 0 0 0 0 0 0 0 0 0 0 0 0 0 0 0 0 0 0 0 0 0 0 0 0 0 0 0 0 0 1 3 3 3 2 1 0 1
0 0 0 0 0 0 0 0 0 0 0 0 0 0 0 0 0 0 0 0 0 0 0 0 0 0 0 0 0 0 0 0 0 0 0 0 0 0 0 0 1 3 3 3 2 1 0 0 0
0 0 0 0 0 0 0 0 0 0 0 0 0 0 1 2 1 0 0 0 0 0 0 0 0 0 0 0 0 0 0 0 0 0 0 0 0 0 0 1 2 3 2 2 1 0 0 0 0
0 0 0 0 0 0 0 0 0 0 0 0 0 1 2 3 2 1 0 0 0 0 0 0 0 0 0 0 0 0 0 0 0 0 0 0 0 0 0 0 1 1 1 1 0 0 0 0 0
0 0 0 0 0 0 0 0 0 0 0 0 0 1 2 3 2 1 0 0 1 1 1 0 0 0 0 0 0 0 0 0 0 0 0 0 0 0 0 0 0 0 0 0 0 0 0 0 0
0 0 0 0 0 0 0 0 0 0 0 0 0 1 2 3 2 1 0 0 1 2 2 1 0 0 0 0 0 0 0 0 0 0 0 0 0 0 0 0 0 0 0 0 0 0 0 0 0
0 0 0 0 0 0 0 0 0 0 0 0 0 1 2 3 2 1 0 0 0 1 2 1 0 0 0 0 0 0 0 0 0 0 0 0 0 0 0 0 0 0 0 0 0 0 0 0 0
0 0 0 0 0 0 0 0 0 0 0 0 0 1 2 3 3 1 0 0 1 2 1 0 0 0 0 0 0 0 0 0 0 0 0 0 0 0 0 0 0 0 0 0 0 0 0 0 0
0 0 0 0 0 0 0 0 0 0 0 0 0 0 1 2 2 1 0 0 1 2 2 1 0 0 0 0 0 0 0 0 0 0 0 0 0 0 0 0 0 0 0 0 0 0 0 0 0
0 0 0 0 0 0 0 0 0 0 0 0 0 0 0 1 1 1 0 0 1 2 3 2 1 0 0 0 0 0 0 0 0 0 0 0 0 0 0 0 0 0 0 0 0 0 0 0 0
0 0 0 0 0 0 0 0 0 0 0 0 0 0 0 0 0 0 0 0 0 1 3 3 2 1 0 0 0 0 0 0 0 0 0 0 0 0 0 0 0 0 0 0 0 0 0 0 0
0 0 0 0 0 0 0 0 0 0 0 0 0 0 0 0 0 0 0 0 0 1 2 3 3 1 0 0 0 0 0 0 0 0 0 0 0 0 0 0 0 0 0 0 0 0 0 0 0
0 0 0 0 0 0 0 0 0 0 0 0 0 0 0 0 0 0 0 0 0 1 2 3 3 2 1 0 0 0 0 0 0 0 0 0 0 0 0 0 0 0 0 0 0 0 0 0 0
0 0 0 0 0 0 0 0 0 0 0 0 0 0 0 0 0 0 0 0 0 1 2 3 3 2 1 0 0 0 0 0 0 0 0 0 0 0 0 0 0 0 0 0 0 0 0 0 0
0 0 0 0 0 0 0 0 0 0 0 0 0 0 0 0 0 0 0 0 0 1 2 2 2 1 0 0 0 0 0 0 0 0 0 0 0 0 0 0 0 0 0 0 0 0 0 0 0
0 0 0 0 0 0 0 0 0 0 0 0 0 0 0 0 0 0 0 0 0 0 1 1 1 0 0 0 0 0 0 0 0 0 0 0 0 0 0 0 0 0 0 0 0 0 0 0 0
0 0 0 0 0 0 0 0 0 0 0 0 0 0 0 0 0 0 0 0 0 0 0 0 0 0 0 0 0 0 0 0 0 0 0 0 0 0 0 0 0 0 0 0 0 0 0 0 0
0 0 0 0 0 0 0 0 0 0 0 0 0 0 0 0 0 0 0 0 0 0 0 0 0 0 0 0 0 0 0 0 0 0 0 0 0 0 0 0 0 0 0 0 0 0 0 0 0
0 0 0 0 0 0 0 0 0 0 0 0 0 0 0 0 0 0 0 0 0 0 0 1 0 0 0 0 0 0 0 0 0 0 0 0 0 0 0 0 0 0 0 0 0 0 0 0 0
0 0 0 0 0 0 0 0 0 0 0 0 0 0 0 0 0 0 0 0 0 0 0 0 0 0 0 0 0 0 0 0 0 0 0 0 0 0 0 0 0 0 0 0 0 0 0 0 0
0 0 0 0 0 0 0 0 0 0 0 0 0 0 0 0 0 0 0 0 0 0 0 0 0 0 0 0 0 0 0 0 0 0 0 0 0 0 0 0 0 0 0 0 0 0 0 0 0
0 0 0 0 0 0 0 0 0 0 0 0 0 0 0 0 0 0 0 0 0 0 0 0 0 0 0 0 0 0 0 0 0 0 0 0 0 0 0 0 0 0 0 0 0 0 0 0 0
0 0 0 0 0 0 0 0 0 0 0 0 0 0 0 0 0 0 0 0 0 0 0 0 0 0 0 0 0 0 0 0 0 0 0 0 0 0 0 0 0 0 0 0 0 0 0 0 0
Wind_Speed
2 3 3 4 6 6 2 1 0 1 2 2 3 5 5 4 2 2 1 2 2 2 1 2 4 5 6 7 7 8 8 8 8 8 8 8 9 9 9 10 10 9 9 9 9 9 9 10 10
1 2 4 5 6 3 1 1 1 1 3 3 4 4 5 3 2 3 1 2 2 2 1 2 4 5 6 7 7 7 8 8 8 8 9 8 8 8 9 9 9 9 9 9 9 9 10 10 10
2 3 5 5 4 4 2 1 1 2 3 2 3 4 3 2 2 2 2 3 3 2 1 2 5 5 6 7 7 7 7 7 8 8 8 8 8 8 9 9 9 9 9 9 9 9 10 10 10
3 5 5 6 3 1 2 2 3 4 3 3 3 4 2 1 3 3 5 4 3 2 1 2 5 6 6 7 7 7 7 7 7 7 8 8 8 8 8 8 8 8 9 9 9 9 10 10 10
4 5 6 4 1 1 0 1 2 3 2 3 3 4 2 3 3 6 6 4 4 2 1 2 5 6 7 7 6 7 7 7 7 7 7 8 8 8 8 8 8 8 9 9 9 10 10 10 9
5 5 5 1 1 2 1 1 3 4 3 3 4 4 1 1 4 5 5 4 3 3 2 2 4 6 6 6 6 6 7 7 7 7 8 8 8 8 8 8 8 9 9 10 10 10 10 10 10
5 4 3 2 0 1 1 2 3 4 3 3 4 4 1 1 3 4 4 4 3 3 3 2 2 3 5 6 6 6 7 7 8 8 8 8 8 9 9 9 9 9 10 10 10 10 11 11 10
5 5 3 1 1 1 0 2 2 4 3 3 4 6 4 4 5 5 5 4 3 3 2 2 2 2 3 3 5 6 7 7 8 8 9 9 9 9 10 10 10 10 10 10 11 11 11 11 11
4 5 2 3 3 1 1 2 2 2 4 2 1 3 4 7 8 6 4 3 2 2 1 2 2 2 2 2 4 5 6 7 7 6 8 8 5 5 6 8 11 11 10 11 11 11 12 11 11
4 3 3 3 4 3 2 2 3 3 3 2 2 3 6 8 8 7 5 4 3 3 1 1 1 1 2 2 3 3 3 4 4 4 4 4 4 4 5 8 11 11 11 10 11 12 11 9 5
3 4 2 1 3 3 3 2 2 6 2 4 5 6 8 8 7 7 6 5 5 3 2 2 2 1 2 2 2 2 2 2 3 4 4 3 3 3 4 3 5 6 8 6 7 7 5 5 4
2 1 1 1 2 3 3 3 2 2 4 4 6 8 9 8 7 7 6 5 3 3 3 2 3 2 2 2 2 2 2 2 2 2 3 3 2 3 3 3 3 3 3 4 4 4 5 6 5
1 0 1 1 3 3 4 3 2 1 1 4 6 7 7 7 5 4 4 4 4 4 3 3 4 3 3 2 2 2 1 1 2 2 2 3 2 2 2 2 3 3 3 3 3 4 5 5 5
1 1 1 1 2 1 4 1 2 2 2 5 6 6 6 6 6 4 4 4 4 4 4 3 4 4 3 2 2 2 1 1 2 2 2 2 2 2 2 2 2 2 2 2 3 3 4 3 4
2 3 3 2 1 1 4 2 2 2 4 5 4 5 5 5 5 5 6 6 5 5 4 4 5 4 4 3 2 2 2 2 2 1 1 2 2 2 2 2 2 2 2 3 3 4 3 4 4
3 3 1 2 1 1 4 3 4 1 5 4 4 3 4 4 4 4 4 4 4 4 4 4 4 4 4 3 3 2 2 2 1 1 2 2 2 3 3 2 1 1 2 3 3 3 3 3 3
3 1 1 3 0 2 3 4 4 1 5 4 4 4 4 3 3 3 3 4 4 5 5 4 4 4 4 3 3 2 2 2 1 1 1 2 2 3 3 2 1 2 2 2 3 2 2 2 3
2 2 2 3 1 2 2 4 4 1 4 5 4 4 4 5 6 4 3 4 4 4 4 4 4 4 4 3 3 2 2 1 1 1 1 2 2 2 3 2 2 2 3 2 3 3 3 2 2
2 2 3 4 2 2 3 4 5 2 3 3 4 4 6 7 6 3 3 3 3 4 4 5 4 4 4 3 2 2 1 1 1 1 2 2 2 3 3 2 2 2 2 2 3 2 3 2 2
2 1 3 3 1 2 2 4 4 3 4 5 6 6 7 5 3 3 3 3 4 4 4 5 5 4 4 3 3 2 2 1 1 1 1 2 2 2 3 3 2 2 3 3 2 2 2 1 2
2 3 4 3 2 1 0 4 3 2 2 3 3 4 5 6 6 5 5 5 4 5 5 5 5 5 4 4 3 3 3 2 2 1 0 0 2 2 2 3 3 3 3 3 2 2 3 2 1
4 5 4 2 1 2 1 3 6 3 3 3 4 3 5 6 6 6 6 6 6 6 5 4 4 4 4 4 4 5 4 3 2 2 1 1 1 2 2 3 3 3 2 2 2 2 2 3 1
5 1 1 1 2 1 0 2 7 2 4 5 4 5 5 5 6 6 7 7 6 5 4 4 4 4 4 4 5 5 3 2 1 1 2 1 1 1 2 3 3 3 2 2 2 2 2 2 2
3 4 4 4 4 1 3 4 6 4 5 5 4 4 4 4 5 5 5 4 4 4 4 4 4 4 4 4 4 4 5 4 3 2 2 1 0 0 1 2 2 2 2 2 2 2 3 2 2
4 5 3 4 2 5 2 3 8 5 5 5 5 4 4 4 4 4 4 5 5 5 5 5 5 4 4 4 4 4 5 5 5 4 4 3 1 1 2 2 2 2 2 2 2 2 2 2 2
2 6 6 4 4 4 1 5 7 4 3 2 3 3 2 3 3 4 5 5 5 6 5 6 6 5 4 4 4 4 4 3 3 4 3 3 3 3 3 3 3 2 2 2 2 2 2 2 2
4 2 5 5 2 2 4 5 7 1 2 1 1 1 1 2 3 4 4 4 5 5 5 6 6 4 4 4 3 3 4 4 3 3 3 2 2 2 3 3 3 3 3 3 3 2 2 2 2
3 6 5 4 4 3 4 4 5 4 3 1 1 0 1 1 1 3 3 4 4 4 4 4 5 5 4 4 3 3 3 3 3 3 3 3 3 2 3 3 3 3 3 3 3 3 2 2 1
3 3 3 3 4 4 3 7 4 4 3 2 2 2 3 2 2 2 2 3 3 3 3 4 4 4 4 4 4 3 3 3 3 3 3 3 2 3 3 4 4 3 3 3 3 3 3 3 2
4 5 6 4 3 3 3 8 4 2 2 2 3 3 2 2 1 2 2 2 2 3 3 3 4 4 4 3 3 3 3 2 3 3 3 3 3 3 3 3 3 3 3 3 4 4 4 4 3
Wind_Direction
58 76 77 57 55 52 54 348 359 34 47 26 62 81 95 89 107 139 265 122 136 114 78 94 93 87 83 80 77 78 74 71 72 75 78 81 82 83 83 81 82 83 83 84 86 89 89 87 84
75 81 56 58 77 72 351 325 130 126 140 131 70 74 75 68 78 111 123 155 126 115 86 99 103 94 87 81 76 76 77 77 78 79 80 82 84 83 84 81 81 82 82 86 88 87 86 86 84
95 58 75 69 91 144 168 196 152 89 118 108 72 57 82 106 129 156 177 147 114 103 89 118 114 104 95 87 80 77 78 79 80 80 81 84 89 86 83 84 84 84 84 84 89 87 84 83 80
76 47 54 70 86 202 185 173 142 115 77 59 93 71 60 72 162 158 139 132 120 110 90 119 113 106 97 89 82 79 78 79 79 81 80 80 84 85 84 84 87 90 89 86 88 86 84 82 79
61 72 62 55 8 326 299 164 149 110 87 66 93 92 46 355 107 126 132 134 130 118 83 105 109 102 96 93 88 81 80 80 81 82 82 79 77 76 78 79 87 89 88 86 84 83 81 79 76
58 66 79 81 336 337 357 131 116 94 98 96 99 101 51 47 119 136 132 127 119 110 84 84 109 104 98 94 88 85 83 79 79 81 81 78 74 69 70 74 81 84 83 82 83 81 79 76 74
97 89 116 140 88 359 119 124 124 124 123 147 134 111 110 169 150 130 117 112 101 92 83 55 55 74 85 85 85 84 81 78 79 82 80 77 73 69 66 68 75 79 78 79 80 77 74 71 71
114 100 93 112 128 292 108 108 118 130 135 125 125 138 179 193 143 113 99 93 90 82 79 65 50 51 53 54 74 81 79 75 77 78 75 69 62 63 64 63 67 72 74 74 75 73 70 67 65
86 78 132 189 174 204 121 103 76 84 104 100 127 163 173 137 126 114 104 90 98 104 78 80 72 58 56 54 66 66 70 65 64 62 65 58 43 43 52 59 66 68 70 69 69 70 68 63 60
85 120 209 202 175 159 141 126 132 97 94 88 72 70 113 127 137 142 150 156 159 165 153 121 116 93 70 65 60 50 55 52 53 53 52 49 44 39 46 53 59 59 59 59 61 63 61 55 48
117 166 207 187 162 142 134 119 114 127 162 196 177 155 142 144 151 161 170 172 177 173 162 153 150 118 94 80 74 60 57 54 53 57 58 57 49 41 39 40 42 44 49 46 46 50 49 50 49
108 218 171 177 149 136 144 129 111 152 208 191 163 152 151 158 170 177 177 177 170 165 174 164 150 132 114 102 92 85 78 69 66 59 65 67 58 50 46 47 40 42 45 49 44 45 47 50 49
108 248 55 103 112 122 110 121 144 226 241 113 121 130 153 166 177 182 175 168 166 175 185 179 153 146 131 114 111 104 100 97 95 80 73 82 83 71 59 52 51 47 48 57 55 53 49 46 45
177 97 59 55 86 111 123 116 111 248 121 115 133 157 173 179 177 168 174 175 179 186 192 175 157 155 138 131 129 121 124 115 99 94 92 98 102 98 80 66 57 53 53 62 65 61 61 53 52
98 77 27 360 100 156 108 17 247 228 134 140 165 182 187 194 183 189 192 186 185 183 181 174 165 150 143 144 139 127 127 117 107 105 99 104 106 108 101 84 66 55 66 71 70 60 60 60 54
55 69 18 297 129 136 124 243 268 195 149 166 187 197 199 202 200 213 200 182 176 166 166 176 163 146 146 141 130 122 119 113 106 109 110 113 113 115 109 99 80 67 74 75 76 65 61 53 47
33 94 235 290 229 131 146 236 271 175 162 181 195 201 208 221 232 230 203 183 173 167 162 163 154 150 150 136 117 108 105 101 96 98 105 107 108 114 112 108 101 90 80 74 84 68 74 66 48
222 216 246 256 257 134 172 246 274 204 176 198 204 203 208 220 233 225 198 185 170 157 153 156 150 146 139 121 101 87 77 70 76 95 105 109 108 108 107 106 102 101 93 77 79 84 67 68 55
187 205 257 263 229 162 218 249 263 222 197 214 215 210 214 225 233 211 176 163 147 148 153 157 154 157 144 135 137 132 137 116 68 79 98 111 116 117 114 113 111 107 107 110 105 97 82 57 45
182 241 274 293 271 172 234 267 266 213 207 214 216 218 219 222 221 199 173 164 173 172 171 167 170 166 167 159 151 141 135 127 121 78 82 111 124 126 127 125 126 120 112 104 102 106 98 58 44
234 208 223 239 344 44 77 305 282 267 223 233 228 224 217 210 206 197 188 188 183 184 185 183 181 173 166 147 123 103 80 62 61 60 61 120 139 135 131 134 133 134 133 140 140 132 125 124 44
249 233 213 211 149 279 119 284 283 264 272 246 240 231 222 217 204 193 190 192 193 196 185 182 175 167 162 150 150 151 152 167 195 182 174 141 142 141 140 141 140 140 137 146 159 140 128 127 123
221 236 169 182 169 248 300 212 281 311 280 267 251 235 226 214 203 197 194 194 194 185 177 176 167 167 166 161 163 160 161 173 160 140 143 152 145 148 150 147 146 150 150 154 150 135 130 129 142
148 72 58 50 76 265 230 193 274 239 235 260 255 239 221 210 203 201 193 181 183 173 166 166 166 174 171 164 165 168 170 168 158 167 170 175 153 169 171 152 154 158 156 162 164 155 148 145 133
87 91 31 359 4 254 239 206 250 253 238 227 231 235 221 198 192 189 185 185 186 181 178 175 174 182 175 171 175 181 180 175 177 183 185 178 180 199 205 175 170 168 171 164 152 147 153 154 151
178 145 160 204 230 278 287 234 253 264 269 242 216 207 194 190 191 195 194 190 191 192 187 182 184 189 176 180 187 183 178 176 182 186 182 190 196 201 191 180 175 170 162 156 148 141 155 145 155
140 171 167 142 171 266 276 284 298 299 342 2 50 84 190 201 197 197 194 188 190 192 194 191 186 185 181 184 185 184 181 180 185 183 180 192 199 189 178 174 168 166 162 160 149 150 160 144 149
146 146 106 130 167 243 282 272 255 274 282 337 16 306 249 245 215 201 191 188 195 197 193 178 178 184 183 176 184 187 193 191 179 168 178 192 197 185 172 171 169 167 163 159 150 151 152 143 158
111 111 118 131 161 169 249 269 231 229 245 248 254 247 234 227 221 206 199 192 186 175 173 172 174 173 177 181 178 175 182 179 169 172 184 189 191 184 182 181 172 171 169 161 155 163 160 165 173
167 165 148 159 213 184 194 264 279 243 244 245 268 268 254 238 229 208 187 171 157 164 171 180 181 180 188 184 176 177 173 165 163 172 185 180 180 187 185 180 174 175 171 165 166 174 181 181 187